Weather Roundup
Issued by NWS

Home | Current Version | Previous Version | Text Only | Print | Product List | Glossary On
Versions: 1 2 3 4 5 6 7 8 9 10 11 12 13 14 15 16 17 18 19 20 21 22 23 24 25 26 27 28 29 30 31 32 33 34 35 36 37 38 39 40 41 42 43 44 45 46 47 48 49 50
000
NZUS93 KARX 271059
HRRWXR

CURRENT HOURLY OBSERVATIONS ACROSS
MUCH OF THE UPPER MISSISSIPPI VALLEY
NATIONAL WEATHER SERVICE LA CROSSE WI
600 AM CDT WED MAY 27 2015


...SOUTHEAST MINNESOTA...


CITY           SKY/WX    TMP DP  RH WIND       PRES   REMARKS
ROCHESTER      CLOUDY    56  54  93 W12       29.91R FOG
ROCHESTER/MAYO FAIR      56  56 100 W6        29.90R
WINONA         CLOUDY    59  55  88 CALM      29.89R
AUSTIN         MOCLDY    55  54  94 W5        29.91R FOG
ALBERT LEA     MOCLDY    55  55 100 CALM      29.92R
DODGE CENTER   CLOUDY    55  55 100 W7        29.90R FOG
PRESTON        MOCLDY    55  53  94 W7        29.90R FOG
OWATONNA       CLOUDY    55  54  94 CALM      29.90S FOG
FARIBAULT      CLOUDY    55  54  94 CALM      29.91R FOG
$$

...ELSEWHERE IN MINNESOTA...


CITY           SKY/WX    TMP DP  RH WIND       PRES   REMARKS
MINNEAPOLIS    CLOUDY    56  55  97 SW5       29.88R FOG
INTNL FALLS    CLEAR     46  45  96 CALM      29.78R
DULUTH         CLOUDY    55  48  77 W9        29.80R
RED WING       MOCLDY    55  55 100 CALM      29.88R FOG
REDWOOD FALLS  PTCLDY    54  51  90 SW6       29.90R
MANKATO        CLOUDY    55  54  94 SW3       29.91R
WORTHINGTON    CLEAR     55  46  71 W8        29.95R
FAIRMONT       MOCLDY    55  52  88 W9        29.92R
$$

...SOUTHWEST WISCONSIN...


CITY           SKY/WX    TMP DP  RH WIND       PRES   REMARKS
LA CROSSE      CLOUDY    60  56  86 W3        29.87R
PRAIRIE DU CHI CLOUDY    60  57  87 W3        29.88R
BOSCOBEL       LGT RAIN  61  58  90 SW5       29.88R FOG
LONE ROCK      NOT AVBL
PLATTEVILLE    CLOUDY    60  59  98 W8        29.88R
FORT MC COY    DRIZZLE   58  56  95 CALM      29.87R
VIROQUA        CLOUDY    57  57 100 W6        29.88R
WIS DELLS      CLOUDY    59  56  89 W3        29.84R
$$

...ELSEWHERE IN WISCONSIN...


CITY           SKY/WX    TMP DP  RH WIND       PRES   REMARKS
MILWAUKEE      MOCLDY    63  59  87 W9        29.85R
MADISON        CLOUDY    61  57  87 VRB5      29.86R
GREEN BAY      CLOUDY    62  57  83 W14       29.76R
EAU CLAIRE     CLOUDY    56  54  93 W6        29.86R
BLACK RVR FLS  DRIZZLE   58  58 100 W3        29.84R
MEDFORD        DRIZZLE   53  52  97 W7        29.82R
WAUSAU         CLOUDY    55  53  93 NW8       29.79R
WIS RAPIDS     CLOUDY    57  54  89 W8        29.84R
MARSHFIELD     CLOUDY    56  53  90 W13       29.83R
RICE LAKE      CLOUDY    53  51  94 CALM      29.87R
$$

...NORTHEAST IOWA...


CITY           SKY/WX    TMP DP  RH WIND       PRES   REMARKS
DECORAH        CLOUDY    57  57 100 NW13      29.88R
MASON CITY     MOCLDY    55  53  93 W7        29.95R
CHARLES CITY   CLOUDY    57  57 100 W7        29.91R FOG
OELWEIN        CLOUDY    57  57 100 W7        29.91R
$$

...ELSEWHERE IN IOWA...


CITY           SKY/WX    TMP DP  RH WIND       PRES   REMARKS
DES MOINES     MOCLDY    57  54  89 SW5       29.97R
IOWA CITY      CLOUDY    60  59  96 W5        29.95R
FORT DODGE     PTCLDY    55  52  88 CALM      29.97R
$$

...NORTHERN ILLINOIS...


CITY           SKY/WX    TMP DP  RH WIND       PRES   REMARKS
CHICAGO-OHARE  PTCLDY    64  60  87 W9        29.90R
CHICAGO-MIDWAY PTCLDY    67  62  84 SW12      29.91R
MOLINE         CLEAR     61  58  90 SW8       29.93R
ROCKFORD       CLOUDY    64  59  83 W12       29.91R
PEORIA         PTCLDY    65  61  87 SW6       29.96R
$$

NOTE: "FAIR" INDICATES FEW OR NO CLOUDS BELOW 12,000 FEET WITH NO
SIGNIFICANT WEATHER AND/OR OBSTRUCTIONS TO VISIBILITY. WIND
SPEEDS ARE IN MILES-PER-HOUR.



USA.gov is the U.S. government's official web portal to all federal, state and local government web resources and services.